TimeEDT,TemperatureF,Dew PointF,Humidity,Sea Level PressureIn,VisibilityMPH,Wind Direction,Wind SpeedMPH,Gust SpeedMPH,PrecipitationIn,Events,Conditions,WindDirDegrees,DateUTC
12:02 AM,77.0,71.6,83,30.10,2.5,NNW,5.8,-,0.04,Rain,Heavy Rain,340,2013-08-20 04:02:00
12:12 AM,75.2,71.6,89,30.10,10.0,Calm,Calm,-,0.04,Rain,Light Rain,0,2013-08-20 04:12:00
12:53 AM,75.0,73.0,94,30.08,10.0,WSW,4.6,-,0.04,,Clear,240,2013-08-20 04:53:00
1:53 AM,75.9,73.9,94,30.06,10.0,Calm,Calm,-,N/A,,Clear,0,2013-08-20 05:53:00
2:53 AM,73.9,72.0,93,30.05,10.0,North,4.6,-,N/A,,Clear,350,2013-08-20 06:53:00
3:53 AM,73.9,71.1,91,30.05,10.0,Calm,Calm,-,N/A,,Clear,0,2013-08-20 07:53:00
4:53 AM,73.0,71.1,93,30.04,10.0,Calm,Calm,-,N/A,,Clear,0,2013-08-20 08:53:00
5:53 AM,73.9,71.1,91,30.06,10.0,NNW,4.6,-,N/A,,Clear,340,2013-08-20 09:53:00
6:53 AM,73.9,72.0,93,30.07,10.0,North,3.5,-,N/A,,Clear,10,2013-08-20 10:53:00
7:53 AM,75.9,73.0,91,30.08,10.0,Calm,Calm,-,N/A,,Clear,0,2013-08-20 11:53:00
8:53 AM,82.0,77.0,85,30.09,10.0,NE,5.8,-,N/A,,Clear,50,2013-08-20 12:53:00
9:53 AM,84.0,75.9,76,30.11,10.0,SE,6.9,-,N/A,,Scattered Clouds,130,2013-08-20 13:53:00
10:53 AM,86.0,75.9,72,30.13,10.0,SE,8.1,-,N/A,,Partly Cloudy,130,2013-08-20 14:53:00
11:53 AM,86.0,75.9,72,30.14,10.0,East,9.2,-,N/A,,Clear,90,2013-08-20 15:53:00
12:53 PM,88.0,77.0,70,30.13,10.0,SE,9.2,-,N/A,,Partly Cloudy,130,2013-08-20 16:53:00
1:53 PM,88.0,75.9,67,30.12,10.0,SE,10.4,-,N/A,,Clear,130,2013-08-20 17:53:00
2:53 PM,87.1,75.9,69,30.10,10.0,SE,12.7,-,N/A,,Clear,140,2013-08-20 18:53:00
3:53 PM,87.1,75.0,67,30.08,10.0,ESE,9.2,-,N/A,,Clear,120,2013-08-20 19:53:00
4:53 PM,87.1,75.9,69,30.08,10.0,SE,10.4,-,N/A,,Clear,130,2013-08-20 20:53:00
5:53 PM,86.0,75.9,72,30.08,10.0,ESE,9.2,-,N/A,,Clear,110,2013-08-20 21:53:00
6:53 PM,84.9,73.9,69,30.08,10.0,ESE,9.2,-,N/A,,Clear,120,2013-08-20 22:53:00
7:53 PM,82.9,75.0,77,30.09,10.0,ESE,6.9,-,N/A,,Partly Cloudy,110,2013-08-20 23:53:00
8:53 PM,82.9,75.0,77,30.12,10.0,SE,6.9,-,N/A,,Partly Cloudy,130,2013-08-21 00:53:00
9:53 PM,82.9,75.0,77,30.14,10.0,ESE,9.2,-,N/A,,Partly Cloudy,120,2013-08-21 01:53:00
10:53 PM,82.9,75.0,77,30.15,10.0,ESE,6.9,-,N/A,,Partly Cloudy,120,2013-08-21 02:53:00
11:53 PM,82.9,75.0,77,30.14,10.0,SE,6.9,-,N/A,,Scattered Clouds,130,2013-08-21 03:53:00